Temperature
16 16 16 16 16 16 16 16 16 16 16 16 16 16 16 16 16 16 16 16 15 15 15 15 15 14 14 14 14 14 14 14 13 13 13 13 13 13
16 16 16 16 16 16 16 16 16 16 16 16 16 16 16 16 16 15 15 15 15 15 15 14 14 14 14 14 14 13 13 13 13 13 13 13 13 13
16 16 16 16 16 16 16 16 16 16 16 15 15 15 15 15 15 15 15 15 15 14 14 14 14 13 13 13 13 13 13 13 12 12 12 12 12 12
16 16 16 16 15 15 15 15 15 15 15 15 15 15 14 14 14 14 14 14 14 13 13 13 13 13 13 12 12 12 12 12 12 11 11 11 11 11
15 15 15 15 15 15 15 15 15 15 15 14 14 14 14 14 13 13 13 13 13 13 12 12 12 12 11 11 11 11 11 11 11 10 10 10 10 10
15 15 15 15 15 15 14 14 14 14 14 14 14 13 13 13 13 13 12 12 12 11 11 11 11 11 11 10 10 10 10 10 10 10 9 9 9 9
15 15 14 14 14 14 14 14 13 13 13 13 13 13 12 12 12 12 11 11 11 10 10 10 10 10 10 9 9 9 9 9 9 9 8 8 8 8
14 14 14 14 14 13 13 13 13 13 12 12 12 12 12 11 11 11 11 10 10 9 9 9 9 9 9 9 8 8 8 8 8 8 7 7 7 7
14 13 13 13 13 13 12 12 12 12 11 11 11 11 11 10 10 10 10 10 9 9 9 8 8 8 8 8 7 7 7 7 7 7 7 7 6 6
13 13 13 12 12 12 12 11 11 11 11 10 10 10 10 10 9 9 9 9 8 8 8 7 7 7 7 7 6 6 6 6 6 6 6 6 6 6
12 12 12 11 11 11 11 11 10 10 10 9 9 9 9 9 8 8 8 8 8 7 7 7 6 6 6 6 6 6 5 5 5 5 5 5 5 5
11 11 11 10 10 10 10 10 10 9 9 9 8 8 8 8 8 8 7 7 7 7 6 6 6 6 5 5 5 5 5 5 5 5 5 4 4 4
11 10 10 9 9 9 9 9 9 8 8 8 8 8 7 7 7 7 7 6 6 6 6 5 5 5 5 4 4 4 4 4 4 4 4 4 4 4
10 9 9 9 9 9 8 8 8 8 7 7 7 7 6 6 6 6 6 6 5 5 5 5 5 4 4 4 4 4 4 4 4 4 4 4 3 3
9 9 8 8 8 8 7 7 7 7 7 7 6 6 6 5 5 5 5 5 5 4 4 4 4 4 4 4 3 3 3 3 3 3 3 3 3 3
8 8 8 7 7 7 7 6 6 6 6 6 5 5 5 5 5 4 4 4 4 4 4 3 3 3 3 3 3 3 3 3 3 3 3 3 3 3
8 7 7 7 7 6 6 6 6 5 5 5 5 5 4 4 4 4 4 4 4 3 3 3 3 3 3 3 3 3 3 3 3 3 3 3 3 2
7 7 7 6 6 6 6 5 5 5 5 4 4 4 4 4 4 4 3 3 3 3 3 3 3 3 3 3 3 3 3 2 2 2 2 2 2 2
7 6 6 6 6 5 5 5 5 4 4 4 4 4 4 3 3 3 3 3 3 3 3 3 3 3 2 2 3 3 2 2 2 2 2 2 2 2
6 6 6 6 5 5 5 5 4 4 4 4 4 3 3 3 3 3 3 3 3 3 3 3 2 2 2 2 2 2 2 2 2 2 2 2 2 2
6 6 5 5 5 5 4 4 4 4 4 4 3 3 3 3 3 3 3 3 3 3 3 2 2 2 2 2 2 2 2 2 2 2 2 2 1 1
6 5 5 5 5 4 4 4 4 4 4 3 3 3 3 3 3 3 3 3 3 2 2 2 2 2 2 2 2 2 2 2 2 2 2 2 1 1
5 5 5 5 4 4 4 4 4 4 4 3 3 3 3 3 3 3 3 2 2 2 2 2 2 2 2 2 2 2 2 2 2 2 2 2 2 1
Wind_Speed
4 4 3 3 3 3 3 3 4 3 2 1 1 2 3 2 1 2 2 2 2 1 1 2 2 2 2 3 3 2 2 2 2 2 3 3 4 4
3 4 3 3 2 2 3 3 3 4 3 1 0 2 4 4 5 5 6 7 7 6 5 5 5 5 5 5 5 5 5 4 4 5 5 5 5 5
3 4 4 3 2 2 2 2 3 3 3 1 1 2 3 4 6 7 8 8 9 10 10 9 9 9 8 8 7 7 6 6 6 6 6 6 6 6
4 4 3 3 2 2 2 2 3 3 4 3 1 2 3 3 5 6 7 8 10 12 12 11 11 11 10 10 9 8 8 8 7 7 7 7 6 6
3 4 3 3 3 2 2 2 2 2 3 3 2 2 2 3 4 5 7 7 9 10 11 12 12 12 11 10 9 9 9 8 8 7 7 7 7 7
3 3 3 3 3 3 3 3 4 4 4 4 3 2 2 2 3 3 5 5 6 8 10 10 11 11 11 10 9 9 8 8 7 7 7 7 7 6
4 3 3 5 5 4 4 4 5 5 5 5 4 3 2 2 2 2 4 4 6 6 5 7 8 8 9 9 9 8 8 7 7 6 6 6 7 7
5 4 5 6 8 10 10 8 7 6 5 4 3 3 2 2 2 3 3 3 2 3 3 4 5 5 6 7 8 9 8 8 7 6 6 6 6 6
5 5 5 6 8 8 11 13 11 10 7 5 5 3 2 1 2 3 2 3 2 1 2 3 3 4 5 8 9 10 10 9 7 6 6 6 6 7
5 5 6 6 6 8 10 10 9 9 8 7 6 4 3 3 2 3 3 4 4 4 3 2 2 2 4 6 9 10 9 9 8 7 7 7 7 7
6 6 7 7 8 10 10 10 9 8 13 15 14 12 12 10 7 5 4 4 3 3 3 2 2 2 2 3 7 9 9 9 9 8 8 8 9 8
6 7 9 8 8 9 8 9 8 6 6 8 10 12 12 12 11 6 3 3 2 2 3 2 2 2 1 2 4 6 7 8 10 9 10 10 10 7
6 5 6 10 11 11 9 7 8 7 7 8 7 7 8 8 8 8 6 3 3 2 2 2 2 2 1 2 2 4 5 5 7 7 9 11 11 7
7 6 7 12 12 12 9 10 11 9 7 7 7 6 5 5 5 7 8 7 6 3 2 2 1 1 1 1 2 3 5 5 5 6 8 10 10 9
8 10 11 13 12 10 12 12 9 7 6 6 6 4 3 3 4 5 7 8 8 8 6 4 2 1 0 1 2 2 3 3 5 6 6 7 6 6
8 11 13 13 11 10 9 8 7 6 6 6 5 4 3 4 5 4 4 4 4 5 7 7 5 2 1 1 2 2 3 4 4 6 6 6 6 6
7 6 6 6 7 6 6 6 6 5 5 4 4 4 4 4 4 3 3 3 3 3 4 5 6 4 2 2 2 3 4 5 5 5 5 5 6 8
8 6 6 6 6 5 6 5 5 4 4 4 4 4 3 3 3 3 3 3 2 2 3 3 4 4 3 1 3 3 4 5 6 6 4 5 6 7
7 6 5 5 5 4 4 4 3 3 2 3 3 3 2 3 3 2 2 2 2 2 3 3 3 3 5 6 4 3 4 6 6 6 5 5 6 8
5 5 4 4 4 4 3 3 3 3 2 2 2 2 2 2 2 2 2 2 2 2 3 3 3 3 3 5 5 5 6 5 5 6 6 6 6 10
4 4 4 4 3 3 3 2 2 2 2 2 1 1 1 1 1 1 1 1 2 2 3 4 5 6 4 3 4 5 6 8 7 6 6 7 7 7
4 4 3 3 3 3 3 3 2 2 2 1 1 0 0 0 0 1 1 1 2 2 3 4 5 4 2 3 6 7 8 8 9 10 10 9 6 7
4 3 3 3 3 3 3 3 3 2 1 1 1 1 1 0 1 1 1 1 2 3 4 4 4 3 4 4 6 7 9 9 7 8 8 10 12 14
Wind_Direction
196 193 200 211 200 199 186 178 174 201 236 290 346 0 6 42 30 104 103 77 100 141 182 191 175 168 169 161 146 129 108 85 67 47 31 19 9 0
193 190 199 210 200 196 193 191 185 186 205 211 357 13 33 58 60 81 86 81 77 85 91 98 106 107 107 110 110 101 92 84 74 64 54 45 37 30
191 188 203 198 193 195 184 175 177 170 186 189 55 28 43 54 60 69 74 76 74 78 83 85 88 90 91 91 91 91 87 82 76 71 64 56 47 41
195 183 192 181 181 183 173 179 179 174 173 178 119 42 49 56 65 66 67 76 76 73 77 80 83 85 86 86 85 82 79 77 76 73 68 59 50 44
185 181 180 162 167 161 152 154 153 148 144 150 139 66 60 64 71 69 66 60 70 69 74 76 79 79 79 80 81 79 78 75 73 71 66 61 52 44
138 148 160 163 168 157 143 137 128 120 116 121 120 88 66 61 78 81 73 56 54 57 65 71 71 70 68 71 74 74 73 73 69 64 56 50 44 38
103 100 103 110 117 126 132 134 133 127 120 116 111 98 84 79 85 80 97 86 56 44 55 54 59 60 57 57 59 64 67 65 60 58 53 46 40 33
115 99 87 86 92 93 95 96 107 124 132 126 120 117 112 102 93 106 112 105 81 22 50 52 54 56 49 51 48 55 58 57 54 49 44 40 32 22
102 99 96 86 88 91 84 79 74 80 100 123 120 121 122 139 127 106 87 86 96 44 62 56 35 46 43 43 43 46 47 47 44 39 32 24 13 2
82 92 98 89 95 101 94 83 73 64 70 81 91 85 84 86 100 115 112 95 75 44 41 62 24 25 27 27 32 34 34 35 32 26 19 12 1 348
76 79 90 89 93 103 102 97 86 72 70 76 78 76 73 74 90 98 94 93 72 39 23 54 32 15 16 16 15 18 22 24 20 16 10 1 351 341
77 70 77 90 92 100 107 109 101 86 83 76 67 62 62 62 63 68 95 98 87 60 20 34 28 19 25 8 357 6 12 12 10 8 1 353 349 342
93 82 78 88 88 88 94 103 113 110 95 88 78 67 61 58 54 56 62 82 88 73 28 36 37 26 20 337 337 345 351 352 353 353 353 349 346 341
102 96 91 89 88 87 90 97 101 98 94 88 80 71 64 56 49 53 62 67 69 76 41 45 58 35 20 353 337 334 336 343 347 343 341 341 341 340
100 100 95 90 87 83 82 89 92 95 96 92 86 74 59 50 57 60 57 61 62 56 47 46 50 44 34 314 318 327 325 326 335 338 335 333 329 330
96 91 86 81 79 76 74 73 73 83 92 93 89 76 65 62 55 50 54 49 53 36 26 30 29 16 345 302 289 317 324 320 327 334 330 323 323 323
107 91 84 85 83 78 75 72 72 75 77 78 85 82 73 65 52 41 47 53 53 27 7 1 2 356 293 276 303 317 324 324 323 328 324 325 320 320
103 101 98 97 98 97 95 84 74 74 76 84 86 85 80 73 63 50 51 52 45 20 0 353 352 359 359 341 249 294 317 320 321 320 315 317 320 323
99 105 106 108 106 105 102 99 92 82 83 90 89 85 83 77 71 57 48 44 29 8 356 352 356 359 351 346 331 271 295 314 316 316 313 308 307 312
103 114 115 118 120 118 114 108 102 95 90 92 90 86 83 81 70 49 38 29 13 358 351 350 351 341 322 318 312 305 295 291 308 313 313 307 298 296
115 119 127 133 134 133 128 122 117 111 105 103 94 88 92 92 71 33 18 13 5 351 341 336 328 315 288 278 302 315 311 302 283 285 302 308 315 316
133 137 142 145 146 149 147 143 138 134 134 131 132 125 122 125 64 349 343 340 336 330 319 317 324 330 330 320 319 317 316 319 317 306 283 265 294 312
155 156 157 160 164 166 166 166 168 176 186 197 204 209 211 232 273 295 309 318 324 327 327 326 332 332 323 314 314 314 316 320 321 324 320 310 296 286
Height
1568 1569 1570 1571 1572 1573 1574 1574 1576 1575 1575 1576 1576 1576 1576 1576 1577 1577 1577 1577 1577 1578 1578 1578 1578 1578 1578 1578 1577 1577 1577 1577 1577 1576 1576 1576 1575 1575
1565 1566 1566 1567 1568 1569 1570 1570 1571 1572 1572 1572 1573 1573 1573 1574 1574 1574 1574 1574 1574 1574 1574 1574 1574 1574 1574 1574 1574 1574 1574 1573 1573 1573 1572 1572 1571 1570
1561 1562 1563 1564 1564 1565 1566 1566 1567 1568 1568 1569 1569 1570 1570 1571 1571 1571 1571 1571 1571 1571 1571 1571 1571 1571 1571 1570 1570 1570 1570 1570 1569 1569 1568 1568 1567 1566
1557 1558 1559 1560 1560 1561 1561 1562 1563 1563 1564 1565 1566 1566 1567 1567 1568 1568 1568 1568 1568 1568 1568 1568 1568 1568 1567 1567 1567 1567 1567 1566 1566 1565 1564 1563 1562 1562
1553 1554 1555 1556 1556 1557 1558 1558 1559 1560 1560 1561 1562 1563 1563 1564 1564 1565 1565 1565 1565 1565 1565 1566 1565 1565 1565 1564 1564 1564 1563 1563 1562 1561 1560 1559 1558 1557
1550 1551 1551 1552 1552 1553 1554 1555 1555 1556 1557 1558 1558 1560 1561 1561 1562 1562 1562 1563 1563 1563 1563 1563 1563 1563 1562 1562 1561 1561 1560 1560 1559 1558 1557 1556 1555 1554
1547 1548 1548 1549 1549 1550 1551 1551 1552 1553 1554 1555 1555 1556 1558 1558 1559 1559 1559 1560 1560 1561 1561 1560 1560 1560 1560 1559 1559 1558 1558 1557 1557 1556 1554 1553 1552 1551
1545 1545 1546 1547 1547 1548 1548 1549 1550 1551 1552 1553 1553 1554 1555 1556 1556 1557 1557 1558 1558 1559 1559 1559 1559 1558 1558 1557 1557 1556 1556 1555 1554 1553 1552 1550 1549 1548
1543 1544 1544 1545 1546 1546 1547 1548 1549 1549 1551 1552 1552 1553 1553 1554 1554 1554 1555 1556 1556 1556 1557 1557 1557 1556 1556 1555 1555 1554 1554 1553 1552 1550 1549 1548 1546 1544
1542 1543 1543 1544 1545 1545 1546 1547 1547 1548 1549 1550 1551 1551 1552 1552 1553 1553 1554 1554 1554 1555 1555 1555 1555 1555 1554 1554 1553 1552 1552 1551 1549 1548 1547 1545 1543 1541
1541 1542 1543 1544 1544 1545 1546 1546 1547 1548 1549 1550 1550 1551 1551 1552 1552 1553 1553 1553 1553 1554 1554 1554 1553 1553 1553 1552 1552 1551 1550 1548 1547 1546 1544 1542 1540 1538
1541 1542 1543 1544 1545 1546 1546 1547 1547 1549 1549 1550 1551 1551 1551 1551 1552 1552 1552 1553 1553 1553 1553 1553 1552 1552 1552 1551 1551 1550 1548 1547 1545 1544 1542 1540 1538 1535
1541 1542 1544 1545 1546 1547 1547 1547 1548 1549 1550 1551 1551 1551 1552 1552 1552 1552 1552 1553 1553 1553 1553 1552 1552 1551 1551 1550 1549 1548 1547 1545 1544 1542 1540 1538 1535 1533
1542 1543 1545 1546 1547 1547 1548 1548 1549 1550 1551 1551 1552 1552 1553 1553 1553 1553 1553 1553 1553 1553 1552 1552 1551 1550 1549 1549 1548 1547 1546 1544 1542 1540 1538 1536 1533 1531
1543 1544 1546 1547 1548 1548 1549 1550 1551 1551 1552 1552 1552 1553 1554 1554 1554 1554 1554 1554 1553 1553 1552 1552 1551 1550 1549 1548 1547 1546 1544 1542 1540 1538 1536 1534 1531 1528
1544 1546 1547 1548 1549 1550 1551 1552 1552 1553 1553 1553 1554 1554 1555 1555 1555 1555 1555 1555 1554 1553 1553 1552 1551 1550 1549 1547 1546 1544 1543 1541 1539 1536 1534 1532 1529 1526
1546 1547 1549 1550 1551 1552 1553 1553 1554 1555 1555 1555 1555 1556 1556 1556 1556 1556 1555 1555 1554 1554 1553 1552 1551 1550 1548 1547 1545 1543 1541 1539 1537 1534 1532 1529 1527 1524
1548 1549 1551 1552 1553 1553 1554 1555 1555 1556 1556 1556 1557 1557 1557 1557 1557 1556 1556 1555 1555 1554 1553 1552 1551 1549 1548 1546 1545 1542 1540 1537 1535 1533 1530 1527 1524 1522
1551 1552 1553 1554 1554 1555 1556 1556 1557 1557 1557 1557 1557 1558 1558 1557 1557 1557 1557 1556 1555 1554 1553 1552 1550 1548 1546 1545 1543 1541 1538 1536 1533 1530 1528 1525 1521 1518
1553 1554 1555 1555 1556 1556 1557 1557 1558 1558 1558 1558 1558 1558 1558 1558 1558 1557 1557 1556 1555 1554 1553 1552 1550 1548 1546 1545 1542 1539 1537 1534 1531 1528 1525 1522 1519 1516
1554 1555 1556 1556 1557 1557 1558 1558 1558 1559 1559 1559 1559 1558 1558 1558 1558 1557 1557 1556 1555 1554 1552 1551 1549 1547 1545 1543 1541 1538 1535 1533 1530 1526 1522 1519 1515 1512
1555 1556 1557 1557 1557 1558 1559 1559 1559 1559 1559 1559 1559 1558 1558 1558 1557 1557 1556 1555 1554 1553 1551 1550 1548 1546 1544 1542 1539 1536 1533 1530 1527 1524 1521 1518 1514 1509
1556 1557 1557 1558 1558 1558 1559 1559 1559 1559 1559 1559 1558 1558 1558 1557 1557 1556 1555 1554 1553 1552 1550 1548 1546 1544 1542 1539 1537 1533 1530 1527 1524 1521 1518 1515 1512 1508